This demonstration page uses our WeatherBlox Daily Observations layout. Learn more.

39.08367, -84.50855

Hourly Observations for January 4, 2019

Temp ( °F °C ) Dew Point ( °F °C ) Humidity (%) Winds ( mph kmh ) Pressure ( in mb ) Visibility ( mi km ) Precip ( " mm )
12:53 am 00:53 Clear with Mist and Fog 32 0 30 -1.1 92 92 Calm 30.03 1017 6 9.656064 0 0
1:53 am 01:53 Clear with Mist and Fog 31 -0.6 29 -1.7 92 92 NE 3 6 30.03 1017 3 4.828032 0 0
2:22 am 02:22 Clear with Mist and Fog 31 -0.6 29 -1.7 92 92 Calm 30.06 1018 2.5 4.02336 0 0
2:33 am 02:33 Clear with Mist and Fog 31 -0.6 29 -1.7 92 92 Calm 30.06 1018 4 6.437376 0 0
2:53 am 02:53 Clear with Mist and Fog 31 -0.6 29 -1.7 92 92 Calm 30 1016 4 6.437376 0 0
3:53 am 03:53 Clear with Mist and Fog 30 -1.1 29 -1.7 96 96 Calm 30 1016 3 4.828032 0 0
4:32 am 04:32 Clear with Mist and Fog 30 -1.1 29 -1.7 96 96 Calm 30 1016 2.5 4.02336 0 0
4:40 am 04:40 Clear with Mist and Fog 30 -1.1 29 -1.7 96 96 N 3 6 30 1016 3 4.828032 0 0
4:53 am 04:53 Clear with Mist and Fog 30 -1.1 29 -1.7 96 96 N 3 6 29.97 1015 4 6.437376 0 0
5:30 am 05:30 Mostly Clear with Mist and Fog 31 -0.6 30 -1.1 96 96 Calm 30 1016 5 8.04672 0 0
5:53 am 05:53 Clear with Mist and Fog 30 -1.1 28 -2.2 92 92 Calm 29.97 1015 4 6.437376 0 0
6:53 am 06:53 Partly Cloudy with Mist and Fog 30 -1.1 29 -1.7 96 96 NNE 5 7 29.91 1013 4 6.437376 0 0
7:53 am 07:53 Partly Cloudy with Mist and Fog 30 -1.1 28 -2.2 92 92 E 3 6 29.91 1013 4 6.437376 0 0
8:53 am 08:53 Partly Cloudy with Mist and Fog 31 -0.6 30 -1.1 96 96 Calm 29.88 1012 4 6.437376 0 0
9:53 am 09:53 Sunny with Mist and Fog 34 1.1 32 0 92 92 Calm 29.91 1013 4 6.437376 0 0
10:53 am 10:53 Hazy 41 5 35 1.7 79 79 N 5 7 29.88 1012 6 9.656064 0 0
11:53 am 11:53 Sunny 47 8.3 35 1.7 63 63 NE 7 11 29.8 1009 10 16.09344 0 0
12:53 pm 12:53 Sunny 51 10.6 31 -0.6 46 46 NE 12 19 29.74 1007 10 16.09344 0 0
1:53 pm 13:53 Sunny 52 11.1 30 -1.1 43 43 ENE 8 13 29.68 1005 10 16.09344 0 0
2:53 pm 14:53 Cloudy 52 11.1 27 -2.8 38 38 E 8 13 29.65 1004 10 16.09344 0 0
3:53 pm 15:53 Cloudy with Light Rain 50 10 35 1.7 57 57 NE 9 15 29.62 1003 10 16.09344 0.001 0.001
4:53 pm 16:53 Cloudy with Light Rain 47 8.3 37 2.8 69 69 ENE 12 19 29.59 1002 6 9.656064 0.01 0.254
5:27 pm 17:27 Cloudy with Rain 45 7.2 40 4.4 83 83 N 7 11 29.65 1004 1.75 2.816352 0.04 1.016
5:37 pm 17:37 Cloudy with Light Rain 44 6.7 40 4.4 85 85 N 9 15 29.65 1004 3 4.828032 0.06 1.524
5:53 pm 17:53 Cloudy with Light Rain 44 6.7 39 3.9 83 83 N 9 15 29.65 1004 6 9.656064 0.07 1.778
6:53 pm 18:53 Cloudy with Rain 42 5.6 39 3.9 89 89 N 14 22 29.65 1004 6 9.656064 0.02 0.508
7:53 pm 19:53 Cloudy with Light Rain 42 5.6 38 3.3 85 85 NNE 13 20 29.65 1004 8 12.874752 0.05 1.27
8:53 pm 20:53 Cloudy with Mist and Fog 41 5 38 3.3 89 89 NNE 10 17 29.65 1004 5 8.04672 0.01 0.254
9:20 pm 21:20 Cloudy 42 5.6 39 3.9 89 89 NNW 7 11 29.68 1005 10 16.09344 0 0
9:53 pm 21:53 Cloudy 42 5.6 39 3.9 89 89 N 6 9 29.65 1004 8 12.874752 0 0
10:53 pm 22:53 Cloudy with Light Rain 41 5 39 3.9 93 93 NW 5 7 29.65 1004 2 3.218688 0.03 0.762
11:02 pm 23:02 Cloudy with Rain 41 5 39 3.9 93 93 NW 7 11 29.71 1006 1.75 2.816352 0.02 0.508
11:09 pm 23:09 Cloudy with Rain 41 5 39 3.9 93 93 NW 7 11 29.71 1006 2 3.218688 0.03 0.762
11:30 pm 23:30 Cloudy with Light Rain 40 4.4 39 3.9 97 97 Calm 29.71 1006 3 4.828032 0.05 1.27
11:38 pm 23:38 Cloudy with Light Rain 40 4.4 38 3.3 93 93 Calm 29.71 1006 4 6.437376 0.06 1.524
11:53 pm 23:53 Cloudy with Light Rain 41 5 38 3.3 89 89 NW 5 7 29.68 1005 7 11.265408 0.06 1.524

Powered by AerisWeather